| time (UTC) | temp C | wind direction | speed KPH | gust KPH | rain 1hr cm | rain 24hr cm | rain mn cm | humidity % | barometer mb |
| 20260504192139 | 27 | 235 | 12.9 | 16.1 | 0.00 | 0.00 | 0.00 | 32 | 1009.4 |
| 20260504191637 | 27 | 206 | 3.2 | 9.7 | 0.00 | 0.00 | 0.00 | 31 | 1009.4 |
| 20260504191133 | 27 | 252 | 3.2 | 14.5 | 0.00 | 0.00 | 0.00 | 32 | 1009.5 |
| 20260504190629 | 27 | 255 | 6.4 | 9.7 | 0.00 | 0.00 | 0.00 | 31 | 1009.4 |
| 20260504190126 | 27 | 326 | 4.8 | 11.3 | 0.00 | 0.00 | 0.00 | 32 | 1009.5 |
| 20260504185622 | 26 | 228 | 6.4 | 12.9 | 0.00 | 0.00 | 0.00 | 31 | 1009.4 |
| 20260504185119 | 27 | 146 | 0.0 | 14.5 | 0.00 | 0.00 | 0.00 | 32 | 1009.5 |
| 20260504184615 | 27 | 170 | 4.8 | 8.0 | 0.00 | 0.00 | 0.00 | 32 | 1009.6 |
| 20260504184110 | 26 | 194 | 4.8 | 6.4 | 0.00 | 0.00 | 0.00 | 33 | 1009.6 |
| 20260504183607 | 26 | 248 | 16.1 | 20.9 | 0.00 | 0.00 | 0.00 | 33 | 1009.7 |
| 20260504183105 | 26 | 152 | 4.8 | 8.0 | 0.00 | 0.00 | 0.00 | 33 | 1009.6 |
| 20260504182602 | 25 | 171 | 3.2 | 17.7 | 0.00 | 0.00 | 0.00 | 33 | 1009.5 |
| 20260504182059 | 26 | 291 | 3.2 | 8.0 | 0.00 | 0.00 | 0.00 | 36 | 1009.6 |
| 20260504181556 | 26 | 184 | 4.8 | 8.0 | 0.00 | 0.00 | 0.00 | 34 | 1009.6 |
| 20260504181054 | 25 | 267 | 4.8 | 11.3 | 0.00 | 0.00 | 0.00 | 33 | 1009.5 |
| 20260504180553 | 25 | 137 | 4.8 | 14.5 | 0.00 | 0.00 | 0.00 | 33 | 1009.6 |
| 20260504180052 | 25 | 268 | 4.8 | 6.4 | 0.00 | 0.00 | 0.00 | 36 | 1009.7 |
| 20260504175548 | 25 | 209 | 1.6 | 8.0 | 0.00 | 0.00 | 0.00 | 33 | 1009.4 |
| 20260504175045 | 25 | 291 | 6.4 | 11.3 | 0.00 | 0.00 | 0.00 | 37 | 1009.3 |
| 20260504174543 | 25 | 261 | 3.2 | 11.3 | 0.00 | 0.00 | 0.00 | 39 | 1009.6 |
| 20260504174040 | 25 | 192 | 4.8 | 8.0 | 0.00 | 0.00 | 0.00 | 34 | 1009.6 |
| 20260504173537 | 24 | 299 | 3.2 | 6.4 | 0.00 | 0.00 | 0.00 | 39 | 1009.8 |
| 20260504173034 | 25 | 222 | 4.8 | 8.0 | 0.00 | 0.00 | 0.00 | 40 | 1009.8 |
| 20260504172530 | 24 | 229 | 9.7 | 11.3 | 0.00 | 0.00 | 0.00 | 43 | 1009.8 |
| 20260504172027 | 23 | 183 | 8.0 | 9.7 | 0.00 | 0.00 | 0.00 | 41 | 1009.9 |
| 20260504171524 | 23 | 237 | 4.8 | 8.0 | 0.00 | 0.00 | 0.00 | 43 | 1010.0 |
| 20260504171021 | 23 | 234 | 8.0 | 8.0 | 0.00 | 0.00 | 0.00 | 43 | 1010.2 |
| 20260504170516 | 22 | 218 | 4.8 | 6.4 | 0.00 | 0.00 | 0.00 | 46 | 1010.2 |
| 20260504160437 | 20 | 230 | 6.4 | 6.4 | 0.00 | 0.00 | 0.00 | 50 | 1010.3 |
| 20260504150900 | 11 | 239 | 3.2 | 4.8 | 0.00 | 0.00 | 0.00 | 87 | 1010.7 |
| 20260504150358 | 10 | 236 | 3.2 | 6.4 | 0.00 | 0.00 | 0.00 | 89 | 1010.8 |
| 20260504141327 | 8 | 255 | 0.0 | 3.2 | 0.00 | 0.00 | 0.00 | 92 | 1010.6 |
| 20260504140824 | 8 | 254 | 4.8 | 4.8 | 0.00 | 0.00 | 0.00 | 92 | 1010.6 |
| 20260504140319 | 8 | 230 | 3.2 | 4.8 | 0.00 | 0.00 | 0.00 | 92 | 1010.5 |
| 20260504130748 | 8 | 256 | 0.0 | 3.2 | 0.00 | 0.00 | 0.00 | 92 | 1010.3 |
| 20260504130244 | 8 | 240 | 4.8 | 4.8 | 0.00 | 0.00 | 0.00 | 93 | 1010.2 |
| 20260504120208 | 8 | 186 | 3.2 | 6.4 | 0.00 | 0.00 | 0.00 | 91 | 1010.2 |
| 20260504110635 | 9 | 264 | 3.2 | 3.2 | 0.00 | 0.00 | 0.00 | 88 | 1010.4 |
| 20260504110131 | 9 | 276 | 4.8 | 6.4 | 0.00 | 0.00 | 0.00 | 89 | 1010.2 |
| 20260504100557 | 10 | 212 | 4.8 | 4.8 | 0.00 | 0.00 | 0.00 | 86 | 1010.3 |
| 20260504081950 | 12 | 190 | 3.2 | 9.7 | 0.00 | 0.00 | 0.00 | 78 | 1010.1 |
| 20260504081448 | 12 | 178 | 4.8 | 8.0 | 0.00 | 0.00 | 0.00 | 78 | 1010.2 |
| 20260504080943 | 12 | 230 | 3.2 | 4.8 | 0.00 | 0.00 | 0.00 | 77 | 1010.2 |
| 20260504080441 | 12 | 230 | 3.2 | 4.8 | 0.00 | 0.00 | 0.00 | 77 | 1010.2 |
| 20260504070408 | 14 | 212 | 4.8 | 8.0 | 0.00 | 0.00 | 0.00 | 69 | 1010.0 |
| 20260504050253 | 15 | 206 | 4.8 | 6.4 | 0.00 | 0.00 | 0.00 | 71 | 1010.4 |
| 20260504045750 | 15 | 198 | 4.8 | 4.8 | 0.00 | 0.00 | 0.00 | 71 | 1010.3 |
| 20260504045245 | 15 | 214 | 4.8 | 6.4 | 0.00 | 0.00 | 0.00 | 70 | 1010.4 |
| 20260504044743 | 16 | 180 | 4.8 | 8.0 | 0.00 | 0.00 | 0.00 | 67 | 1010.3 |
| 20260504044240 | 16 | 192 | 4.8 | 8.0 | 0.00 | 0.00 | 0.00 | 68 | 1010.1 |
| 20260504043737 | 16 | 212 | 6.4 | 8.0 | 0.00 | 0.00 | 0.00 | 67 | 1010.3 |
| 20260504043234 | 16 | 218 | 6.4 | 8.0 | 0.00 | 0.00 | 0.00 | 67 | 1010.3 |
| 20260504042732 | 16 | 203 | 4.8 | 6.4 | 0.00 | 0.00 | 0.00 | 66 | 1010.2 |
| 20260504042228 | 16 | 196 | 4.8 | 6.4 | 0.00 | 0.00 | 0.00 | 65 | 1010.2 |
| 20260504041724 | 16 | 220 | 6.4 | 6.4 | 0.00 | 0.00 | 0.00 | 64 | 1010.3 |
| 20260504041220 | 16 | 225 | 4.8 | 6.4 | 0.00 | 0.00 | 0.00 | 65 | 1010.1 |
| 20260504040716 | 16 | 228 | 4.8 | 6.4 | 0.00 | 0.00 | 0.00 | 65 | 1010.2 |
| 20260504040214 | 17 | 233 | 4.8 | 6.4 | 0.00 | 0.00 | 0.00 | 64 | 1010.2 |
| 20260504035710 | 17 | 219 | 4.8 | 6.4 | 0.00 | 0.00 | 0.00 | 65 | 1010.1 |
| 20260504035208 | 17 | 234 | 4.8 | 6.4 | 0.00 | 0.00 | 0.00 | 66 | 1010.1 |
| 20260504034705 | 17 | 241 | 4.8 | 4.8 | 0.00 | 0.00 | 0.00 | 67 | 1010.1 |
| 20260504034202 | 17 | 239 | 4.8 | 4.8 | 0.00 | 0.00 | 0.00 | 65 | 1009.8 |
| 20260504033659 | 17 | 241 | 3.2 | 3.2 | 0.00 | 0.00 | 0.00 | 66 | 1009.8 |
| 20260504033156 | 17 | 247 | 3.2 | 4.8 | 0.00 | 0.00 | 0.00 | 62 | 1010.0 |
| 20260504032653 | 18 | 258 | 4.8 | 6.4 | 0.00 | 0.00 | 0.00 | 62 | 1010.0 |
| 20260504032150 | 18 | 252 | 4.8 | 4.8 | 0.00 | 0.00 | 0.00 | 64 | 1009.8 |
| 20260504031647 | 18 | 238 | 4.8 | 4.8 | 0.00 | 0.00 | 0.00 | 62 | 1009.8 |
| 20260504031144 | 18 | 272 | 4.8 | 4.8 | 0.00 | 0.00 | 0.00 | 63 | 1009.6 |
| 20260504030640 | 19 | 251 | 4.8 | 6.4 | 0.00 | 0.00 | 0.00 | 64 | 1009.7 |
| 20260504030137 | 19 | 236 | 4.8 | 4.8 | 0.00 | 0.00 | 0.00 | 62 | 1009.8 |
| 20260504025634 | 20 | 251 | 4.8 | 4.8 | 0.00 | 0.00 | 0.00 | 60 | 1009.6 |
| 20260504025131 | 20 | 259 | 4.8 | 4.8 | 0.00 | 0.00 | 0.00 | 58 | 1009.6 |
| 20260504024628 | 20 | 265 | 3.2 | 4.8 | 0.00 | 0.00 | 0.00 | 57 | 1009.6 |
| 20260504024125 | 20 | 236 | 6.4 | 8.0 | 0.00 | 0.00 | 0.00 | 55 | 1009.6 |
| 20260504023621 | 20 | 229 | 4.8 | 4.8 | 0.00 | 0.00 | 0.00 | 53 | 1009.6 |
| 20260504023117 | 21 | 237 | 6.4 | 6.4 | 0.00 | 0.00 | 0.00 | 53 | 1009.6 |
| 20260504022614 | 21 | 249 | 6.4 | 6.4 | 0.00 | 0.00 | 0.00 | 53 | 1009.6 |
| 20260504022110 | 21 | 246 | 6.4 | 6.4 | 0.00 | 0.00 | 0.00 | 52 | 1009.6 |
| 20260504021608 | 21 | 243 | 8.0 | 8.0 | 0.00 | 0.00 | 0.00 | 49 | 1009.6 |
| 20260504021104 | 22 | 238 | 6.4 | 6.4 | 0.00 | 0.00 | 0.00 | 48 | 1009.7 |
| 20260504020601 | 22 | 253 | 6.4 | 8.0 | 0.00 | 0.00 | 0.00 | 48 | 1009.7 |
| 20260504020057 | 22 | 238 | 6.4 | 8.0 | 0.00 | 0.00 | 0.00 | 46 | 1009.7 |
| 20260504015554 | 23 | 246 | 6.4 | 9.7 | 0.00 | 0.00 | 0.00 | 45 | 1009.6 |
| 20260504015050 | 23 | 239 | 6.4 | 9.7 | 0.00 | 0.00 | 0.00 | 44 | 1009.6 |
| 20260504014546 | 25 | 256 | 8.0 | 9.7 | 0.00 | 0.00 | 0.00 | 43 | 1009.7 |
| 20260504014044 | 25 | 222 | 14.5 | 14.5 | 0.00 | 0.00 | 0.00 | 34 | 1009.7 |
| 20260504013541 | 25 | 292 | 4.8 | 11.3 | 0.00 | 0.00 | 0.00 | 43 | 1009.8 |
| 20260504013038 | 25 | 276 | 4.8 | 8.0 | 0.00 | 0.00 | 0.00 | 35 | 1009.6 |
| 20260504012536 | 25 | 256 | 4.8 | 6.4 | 0.00 | 0.00 | 0.00 | 43 | 1009.6 |
| 20260504012033 | 25 | 274 | 6.4 | 12.9 | 0.00 | 0.00 | 0.00 | 38 | 1009.7 |
| 20260504011530 | 26 | 275 | 4.8 | 11.3 | 0.00 | 0.00 | 0.00 | 41 | 1009.9 |
| 20260504011026 | 26 | 261 | 4.8 | 8.0 | 0.00 | 0.00 | 0.00 | 39 | 1009.9 |
| 20260504010522 | 26 | 266 | 4.8 | 9.7 | 0.00 | 0.00 | 0.00 | 37 | 1009.8 |
| 20260504010018 | 26 | 300 | 6.4 | 6.4 | 0.00 | 0.00 | 0.00 | 38 | 1010.0 |
| 20260504005515 | 26 | 249 | 4.8 | 6.4 | 0.00 | 0.00 | 0.00 | 36 | 1010.0 |
| 20260504005012 | 26 | 255 | 4.8 | 11.3 | 0.00 | 0.00 | 0.00 | 36 | 1009.9 |
| 20260504004510 | 26 | 262 | 6.4 | 8.0 | 0.00 | 0.00 | 0.00 | 33 | 1010.0 |
| 20260504004007 | 26 | 294 | 3.2 | 6.4 | 0.00 | 0.00 | 0.00 | 35 | 1010.0 |
| 20260504003503 | 27 | 241 | 8.0 | 8.0 | 0.00 | 0.00 | 0.00 | 35 | 1010.0 |
| 20260504003000 | 27 | 259 | 4.8 | 8.0 | 0.00 | 0.00 | 0.00 | 37 | 1010.2 |
| 20260504002456 | 27 | 273 | 4.8 | 4.8 | 0.00 | 0.00 | 0.00 | 35 | 1010.1 |
| 20260504001954 | 27 | 254 | 6.4 | 6.4 | 0.00 | 0.00 | 0.00 | 32 | 1010.1 |
| 20260504001451 | 27 | 276 | 6.4 | 9.7 | 0.00 | 0.00 | 0.00 | 31 | 1010.2 |
| 20260504000948 | 28 | 240 | 8.0 | 8.0 | 0.00 | 0.00 | 0.00 | 33 | 1010.2 |
| 20260504000445 | 28 | 212 | 4.8 | 4.8 | 0.00 | 0.00 | 0.00 | 32 | 1010.4 |
| 20260503235942 | 28 | 281 | 4.8 | 8.0 | 0.00 | 0.00 | 0.00 | 33 | 1010.3 |
| 20260503235440 | 29 | 242 | 4.8 | 6.4 | 0.00 | 0.00 | 0.00 | 32 | 1010.4 |
| 20260503234937 | 29 | 262 | 4.8 | 9.7 | 0.00 | 0.00 | 0.00 | 29 | 1010.4 |
| 20260503234435 | 29 | 283 | 6.4 | 8.0 | 0.00 | 0.00 | 0.00 | 32 | 1010.5 |
| 20260503233933 | 29 | 253 | 4.8 | 6.4 | 0.00 | 0.00 | 0.00 | 30 | 1010.4 |
| 20260503233429 | 29 | 221 | 3.2 | 8.0 | 0.00 | 0.00 | 0.00 | 31 | 1010.7 |
| 20260503232925 | 29 | 282 | 6.4 | 12.9 | 0.00 | 0.00 | 0.00 | 34 | 1010.3 |
| 20260503232422 | 29 | 275 | 6.4 | 8.0 | 0.00 | 0.00 | 0.00 | 34 | 1010.4 |
| 20260503231920 | 29 | 195 | 6.4 | 11.3 | 0.00 | 0.00 | 0.00 | 31 | 1010.6 |
| 20260503231417 | 29 | 301 | 6.4 | 8.0 | 0.00 | 0.00 | 0.00 | 34 | 1010.6 |
| 20260503230913 | 29 | 278 | 4.8 | 8.0 | 0.00 | 0.00 | 0.00 | 34 | 1010.8 |
| 20260503230410 | 29 | 304 | 6.4 | 11.3 | 0.00 | 0.00 | 0.00 | 31 | 1010.8 |
| 20260503225908 | 29 | 270 | 3.2 | 6.4 | 0.00 | 0.00 | 0.00 | 31 | 1010.9 |
| 20260503225404 | 29 | 263 | 6.4 | 8.0 | 0.00 | 0.00 | 0.00 | 31 | 1010.9 |
| 20260503224900 | 29 | 240 | 4.8 | 8.0 | 0.00 | 0.00 | 0.00 | 30 | 1011.1 |
| 20260503224357 | 30 | 228 | 6.4 | 11.3 | 0.00 | 0.00 | 0.00 | 30 | 1011.1 |
| 20260503223855 | 29 | 250 | 4.8 | 9.7 | 0.00 | 0.00 | 0.00 | 30 | 1011.2 |
| 20260503223353 | 29 | 180 | 4.8 | 14.5 | 0.00 | 0.00 | 0.00 | 28 | 1011.0 |
| 20260503222848 | 29 | 254 | 9.7 | 11.3 | 0.00 | 0.00 | 0.00 | 30 | 1011.3 |
| 20260503222347 | 29 | 303 | 4.8 | 8.0 | 0.00 | 0.00 | 0.00 | 30 | 1011.0 |
| 20260503221844 | 29 | 285 | 4.8 | 6.4 | 0.00 | 0.00 | 0.00 | 31 | 1011.3 |
| 20260503221343 | 28 | 208 | 3.2 | 11.3 | 0.00 | 0.00 | 0.00 | 27 | 1011.3 |
| 20260503220838 | 29 | 297 | 4.8 | 9.7 | 0.00 | 0.00 | 0.00 | 29 | 1011.4 |
| 20260503220336 | 29 | 232 | 6.4 | 8.0 | 0.00 | 0.00 | 0.00 | 27 | 1011.4 |
| 20260503215832 | 28 | 198 | 4.8 | 11.3 | 0.00 | 0.00 | 0.00 | 28 | 1011.5 |
| 20260503215329 | 28 | 280 | 4.8 | 14.5 | 0.00 | 0.00 | 0.00 | 31 | 1011.7 |
| 20260503214827 | 28 | 315 | 4.8 | 8.0 | 0.00 | 0.00 | 0.00 | 28 | 1011.5 |
| 20260503214324 | 28 | 215 | 3.2 | 11.3 | 0.00 | 0.00 | 0.00 | 28 | 1011.6 |
| 20260503213822 | 28 | 241 | 3.2 | 11.3 | 0.00 | 0.00 | 0.00 | 29 | 1011.8 |
| 20260503213319 | 28 | 281 | 0.0 | 17.7 | 0.00 | 0.00 | 0.00 | 30 | 1011.7 |
| 20260503212816 | 28 | 231 | 3.2 | 6.4 | 0.00 | 0.00 | 0.00 | 31 | 1011.8 |
| 20260503212314 | 28 | 215 | 1.6 | 4.8 | 0.00 | 0.00 | 0.00 | 28 | 1011.9 |
| 20260503211811 | 28 | 228 | 8.0 | 8.0 | 0.00 | 0.00 | 0.00 | 30 | 1011.8 |
| 20260503211308 | 27 | 157 | 4.8 | 8.0 | 0.00 | 0.00 | 0.00 | 29 | 1011.9 |
| 20260503210807 | 28 | 118 | 0.0 | 6.4 | 0.00 | 0.00 | 0.00 | 28 | 1011.9 |
| 20260503210306 | 27 | 261 | 8.0 | 11.3 | 0.00 | 0.00 | 0.00 | 29 | 1011.9 |
| 20260503205800 | 27 | 258 | 4.8 | 12.9 | 0.00 | 0.00 | 0.00 | 30 | 1012.1 |
| 20260503205257 | 27 | 265 | 8.0 | 8.0 | 0.00 | 0.00 | 0.00 | 30 | 1012.4 |
| 20260503204753 | 27 | 189 | 4.8 | 8.0 | 0.00 | 0.00 | 0.00 | 29 | 1012.4 |
| 20260503204251 | 27 | 227 | 3.2 | 19.3 | 0.00 | 0.00 | 0.00 | 29 | 1012.4 |
| 20260503203749 | 27 | 273 | 4.8 | 8.0 | 0.00 | 0.00 | 0.00 | 31 | 1012.6 |
| 20260503203246 | 27 | 201 | 6.4 | 8.0 | 0.00 | 0.00 | 0.00 | 30 | 1012.7 |
| 20260503202743 | 27 | 212 | 6.4 | 9.7 | 0.00 | 0.00 | 0.00 | 30 | 1012.6 |
| 20260503202241 | 27 | 236 | 3.2 | 12.9 | 0.00 | 0.00 | 0.00 | 30 | 1012.7 |
| 20260503201738 | 26 | 19 | 6.4 | 12.9 | 0.00 | 0.00 | 0.00 | 32 | 1012.7 |
| 20260503201235 | 26 | 263 | 9.7 | 16.1 | 0.00 | 0.00 | 0.00 | 33 | 1012.8 |
| 20260503200732 | 26 | 299 | 3.2 | 8.0 | 0.00 | 0.00 | 0.00 | 31 | 1012.9 |
| 20260503200228 | 27 | 172 | 6.4 | 9.7 | 0.00 | 0.00 | 0.00 | 31 | 1012.9 |
| 20260503195725 | 27 | 268 | 6.4 | 11.3 | 0.00 | 0.00 | 0.00 | 33 | 1013.0 |
| 20260503195222 | 26 | 225 | 4.8 | 12.9 | 0.00 | 0.00 | 0.00 | 31 | 1012.9 |
| 20260503194720 | 26 | 190 | 8.0 | 9.7 | 0.00 | 0.00 | 0.00 | 30 | 1012.9 |
| 20260503194215 | 26 | 169 | 4.8 | 12.9 | 0.00 | 0.00 | 0.00 | 32 | 1013.1 |
| 20260503193711 | 26 | 235 | 4.8 | 14.5 | 0.00 | 0.00 | 0.00 | 31 | 1013.3 |
| 20260503193207 | 26 | 232 | 4.8 | 8.0 | 0.00 | 0.00 | 0.00 | 35 | 1013.0 |